Tracking 18987 objects as of 26-Feb-2018
HD Live streaming from Space Station
objects crossing your sky now

NATO 3A

Track NATO 3A now!
NATO 3A is classified as:


NORAD ID: 8808
Int'l Code: 1976-035A
Perigee: 35,816.0 km
Apogee: 36,017.6 km
Inclination: 11.3 °
Period: 1,442.4 minutes
Semi major axis: 42287 km
RCS: 7.2313 m2 (large)
Launch date: April 22, 1976
Source: North Atlantic Treaty Organization (NATO)
Launch site: AIR FORCE EASTERN TEST RANGE (AFETR)
aabbcc
Your satellite tracking list
Your tracking list is empty




NASA's NSSDC Master Catalog

Two Line Element Set (TLE):
1 08808U 76035A   18056.76295897 -.00000051  00000-0  00000+0 0  9994
2 08808  11.3487 323.9870 0023830 255.9896 289.4138  0.99834453716961
Source of the keplerian elements: AFSPC